Voltar ao catálogo

STARLINK-3770

AtivoComunicaçõesVLEO
NORAD 52554·PAYLOAD·🇺🇸 United States

Lançado May 13, 2022 de Vandenberg Space Force Base

Loading…

Próximas Passagens (próximas 24 horas)

TLE

AtualizadoSource: CelesTrak SupGP

Época: Sep 14, 2026, 22:01 UTC

1 52554C 22051X   26257.91784722 -.00031376  00000+0 -10090-2 0  2573
2 52554  53.1615 359.7606 0000973  80.3444 101.4967 15.31715880    10

Acompanhe STARLINK-3770 em tempo real com AllMySat

Download on the App Store